Weather History for Evansville, IN

Change the Weather History Date:

Monday, May 27, 2013

  Actual Average Record
Temperature  
Mean Temperature 73 °F 69 °F  
Max Temperature 86 °F 80 °F 96 °F (1911)
Min Temperature 60 °F 58 °F 35 °F (1961)
Degree Days  
Heating Degree Days 0 1  
Month to date heating degree days 82 82  
Since 1 July heating degree days 4530 4537  
Cooling Degree Days 8 5  
Month to date cooling degree days 90 84  
Year to date cooling degree days 124 111  
Growing Degree Days 23 (Base 50)    
Moisture  
Dew Point 59 °F    
Average Humidity 61    
Maximum Humidity 81    
Minimum Humidity 40    
Precipitation  
Precipitation 0.12 in 0.17 in 3.49 in (2008)
Month to date precipitation 4.22 4.67  
Year to date precipitation 21.69 19.55  
Snow  
Snow 0.00 in 0.00 in - ()
Month to date snowfall 0.0 0.0  
Since 1 July snowfall 12.3 11.8  
Snow Depth 0.00 in    
Sea Level Pressure  
Sea Level Pressure 30.02 in    
Wind  
Wind Speed 10 mph (South)    
Max Wind Speed 31 mph    
Max Gust Speed 46 mph    
Visibility 10 miles    
Events Rain , Thunderstorm    
T = Trace of Precipitation, MM = Missing Value Source: NWS Daily Summary

Daily Weather History Graph

Daily Weather History Graph

Search for Another Location

Airport:

Trip Planner

Search our weather history database for the weather conditions in past years. The results will help you decide how hot, cold, wet, or windy it might be!

Date:

Astronomy

May. 27, 2013 Rise Set
Actual Time 5:31 AM CDT 8:03 PM CDT
Civil Twilight 5:00 AM CDT 8:34 PM CDT
Nautical Twilight 4:22 AM CDT 9:12 PM CDT
Astronomical Twilight 3:40 AM CDT 9:54 PM CDT
Moon 10:43 PM CDT 8:07 AM CDT
Length of Visible Light 15h 33m
Length of Day
14h 32m
Waning Gibbous, 91% of the Moon is Illuminated
May 27
Waning Gibbous
May 31
Last Quarter
Jun 8
New
Jun 16
First Quarter
Jun 23
Full

Hourly Weather History & Observations

Time (CDT) Temp. Heat Index Dew Point Humidity Pressure Visibility Wind Dir Wind Speed Gust Speed Precip Events Conditions
12:54 AM 68.0 °F - 52.0 °F 56% 30.09 in 10.0 mi SE 4.6 mph - N/A   Clear
1:54 AM 66.9 °F - 52.0 °F 59% 30.08 in 10.0 mi South 3.5 mph - N/A   Clear
2:54 AM 66.0 °F - 53.1 °F 63% 30.07 in 10.0 mi SSE 3.5 mph - N/A   Clear
3:54 AM 66.0 °F - 53.1 °F 63% 30.07 in 10.0 mi South 4.6 mph - N/A   Clear
4:54 AM 66.0 °F - 54.0 °F 65% 30.07 in 10.0 mi Calm Calm - N/A   Clear
5:54 AM 61.0 °F - 54.0 °F 78% 30.08 in 10.0 mi East 3.5 mph - N/A   Partly Cloudy
6:54 AM 64.0 °F - 55.0 °F 73% 30.08 in 10.0 mi SE 5.8 mph - N/A   Partly Cloudy
7:54 AM 70.0 °F - 57.0 °F 63% 30.05 in 10.0 mi South 6.9 mph - N/A   Partly Cloudy
8:54 AM 75.0 °F - 57.0 °F 53% 30.04 in 10.0 mi South 12.7 mph 20.7 mph N/A   Clear
9:54 AM 77.0 °F - 60.1 °F 56% 30.06 in 10.0 mi SSW 11.5 mph - N/A   Clear
10:54 AM 80.1 °F 81.5 °F 63.0 °F 56% 30.04 in 10.0 mi SSW 16.1 mph 20.7 mph N/A   Clear
11:54 AM 82.9 °F 84.0 °F 63.0 °F 51% 30.03 in 10.0 mi SW 18.4 mph 25.3 mph N/A   Partly Cloudy
12:54 PM 84.0 °F 83.5 °F 57.9 °F 41% 29.99 in 10.0 mi SSW 19.6 mph 28.8 mph N/A   Clear
1:54 PM 84.0 °F 83.3 °F 57.0 °F 40% 30.00 in 10.0 mi SSW 19.6 mph 27.6 mph N/A   Clear
2:54 PM 86.0 °F 85.7 °F 60.1 °F 41% 29.99 in 10.0 mi SW 13.8 mph - N/A   Partly Cloudy
3:54 PM 84.9 °F 84.8 °F 60.1 °F 43% 29.96 in 10.0 mi South 17.3 mph 25.3 mph N/A   Mostly Cloudy
4:54 PM 82.9 °F 82.8 °F 59.0 °F 44% 29.96 in 10.0 mi South 11.5 mph 20.7 mph N/A   Overcast
5:54 PM 81.0 °F 81.6 °F 60.1 °F 49% 29.96 in 10.0 mi South 12.7 mph 21.9 mph N/A   Overcast
6:54 PM 80.1 °F 80.9 °F 60.1 °F 50% 29.94 in 10.0 mi South 11.5 mph 18.4 mph N/A   Mostly Cloudy
7:54 PM 78.1 °F - 59.0 °F 52% 29.99 in 10.0 mi SW 10.4 mph 17.3 mph N/A Thunderstorm Mostly Cloudy
8:03 PM 73.4 °F - 60.8 °F 65% 30.03 in 10.0 mi WNW 23.0 mph 46.0 mph N/A Thunderstorm Squalls
8:15 PM 68.0 °F - 62.6 °F 83% 30.04 in 4.0 mi WNW 16.1 mph 27.6 mph 0.04 in Rain Heavy Rain
8:45 PM 66.2 °F - 64.4 °F 94% 30.00 in 6.0 mi ENE 3.5 mph - 0.10 in Rain , Thunderstorm Light Rain
8:54 PM 66.9 °F - 64.0 °F 90% 29.96 in 8.0 mi East 9.2 mph - 0.12 in Rain , Thunderstorm Light Thunderstorms and Rain
9:11 PM 66.2 °F - 64.4 °F 94% 29.96 in 10.0 mi ENE 3.5 mph - 0.00 in   Scattered Clouds
9:54 PM 66.9 °F - 64.0 °F 90% 29.96 in 10.0 mi ESE 4.6 mph - 0.00 in   Partly Cloudy
10:54 PM 68.0 °F - 63.0 °F 84% 29.96 in 10.0 mi SSE 4.6 mph - N/A   Clear
11:54 PM 68.0 °F - 63.0 °F 84% 29.96 in 10.0 mi SSE 3.5 mph - N/A   Clear